Overview Statistics Trail Chart Weather Telemetry Raw packets
 

This is the latest recevied weather packets stored in our database for station/object KD8DNS. If no packets are shown the sender has not sent any weather packets the latest 10 day(s).

<< 6 7 8 9 10 11 12 >>
Time Temp. Humidity Pressure Rain* Wind** Luminosity Snow
1788622779 23.89° C 90% 1017.1 hPa 0 mm - 553 W/m² -
1788622475 23.33° C 93% 1017.1 hPa 0 mm - 573 W/m² -
1788622173 22.78° C 94% 1017.1 hPa 0 mm - 550 W/m² -
1788621868 22.78° C 96% 1017.1 hPa 0 mm - 521 W/m² -
1788621563 22.22° C 97% 1016.9 hPa 0 mm - 544 W/m² -
1788621259 22.22° C 99% 1017 hPa 0 mm - 533 W/m² -
1788620958 21.67° C 99% 1017.4 hPa 0 mm - 514 W/m² -
1788620653 21.67° C 99% 1017.1 hPa 0 mm - 167 W/m² -
1788620350 21.67° C 99% 1016.8 hPa 0 mm - 192 W/m² -
1788620050 21.67° C 99% 1016.8 hPa 0 mm - 137 W/m² -
1788619744 21.67° C 99% 1016.3 hPa 0 mm - 155 W/m² -
1788619440 21.67° C 99% 1016.2 hPa 0 mm - 138 W/m² -
1788619138 21.67° C 99% 1015.9 hPa 0 mm - 124 W/m² -
1788618832 21.11° C 99% 1015.9 hPa 0 mm - 126 W/m² -
1788618532 21.11° C 99% 1015.8 hPa 0 mm - 197 W/m² -
1788618230 21.11° C 99% 1015.7 hPa 0 mm - 186 W/m² -
1788617927 21.11° C 99% 1015.5 hPa 0 mm - 181 W/m² -
1788617622 20.56° C 99% 1015.7 hPa 0 mm - 266 W/m² -
1788617318 20.56° C 99% 1015.8 hPa 0 mm - 192 W/m² -
1788617018 20.56° C 99% 1016.1 hPa 0 mm - 154 W/m² -
1788616716 20.56° C 99% 1016.3 hPa 0 mm - 107 W/m² -
1788616412 20.56° C 99% 1015 hPa 0 mm - 65 W/m² -
1788616107 20.56° C 99% 1015.2 hPa 0 mm - 47 W/m² -
1788615800 20.56° C 99% 1015.4 hPa 0 mm - 30 W/m² -
1788615495 20.56° C 99% 1016.3 hPa 0 mm - 13 W/m² -

* Rain latest hour (hover to see other rain measurements)
** Current wind speed in m/s (hover to see current wind gust speed)